North Bend, OR

12:59 PM PDT on June 25, 2018 (GMT -0700)
North Bend Municipal

Weather History for KOTH - March, 2011

Change the Weather History Date:

Friday, March 4, 2011

  Actual Average Record
Temperature  
Mean Temperature 50 °F 47 °F  
Max Temperature 57 °F 54 °F 76 °F (1929)
Min Temperature 43 °F 41 °F 24 °F (1923)
Degree Days  
Heating Degree Days 15 18  
Month to date heating degree days 65 72  
Since 1 July heating degree days 3232 3246  
Cooling Degree Days 0 0  
Month to date cooling degree days 0 0  
Year to date cooling degree days 0 0  
Moisture  
Dew Point 40 °F    
Average Humidity 71    
Maximum Humidity 86    
Minimum Humidity 51    
Precipitation  
Precipitation 0.77 in 0.27 in 1.35 in (1991)
Month to date precipitation 1.36 1.12  
Year to date precipitation 11.34 18.90  
Sea Level Pressure  
Sea Level Pressure 30.16 in    
Wind  
Wind Speed 11 mph (South)    
Max Wind Speed 28 mph    
Max Gust Speed 41 mph    
Visibility 10 miles    
Events      
T = Trace of Precipitation, MM = Missing Value Source: NWS Daily Summary

Daily Weather History Graph

Daily Weather History Graph

Search for Another Location

Airport or City:

Astronomy

Mar. 04, 2011 Rise Set
Actual Time 6:48 AM PST 6:09 PM PST
Civil Twilight 6:19 AM PST 6:38 PM PST
Nautical Twilight 5:46 AM PST 7:11 PM PST
Astronomical Twilight 5:13 AM PST 7:44 PM PST
Moon 6:22 AM PST (3/4) 6:27 PM PST (3/4)
Length of Visible Light 12h 18m
Length of Day
11h 21m
Waning Crescent, 0% of the Moon is Illuminated
Mar 4
Waning Crescent
Mar 4
New
Mar 12
First Quarter
Mar 19
Full
Mar 26
Last Quarter

Hourly Weather History & Observations

Time (PST) Temp. Windchill Dew Point Humidity Pressure Visibility Wind Dir Wind Speed Gust Speed Precip Events Conditions
12:15 AM 44.6 °F 41.4 °F 39.2 °F 81% 30.28 in 10.0 mi SE 5.8 mph - N/A   Overcast
12:35 AM 44.6 °F 41.4 °F 39.2 °F 81% 30.28 in 10.0 mi South 5.8 mph - N/A   Overcast
12:55 AM 44.6 °F 41.4 °F 39.2 °F 81% 30.27 in 10.0 mi SSE 5.8 mph - N/A   Overcast
1:15 AM 44.6 °F 41.4 °F 39.2 °F 81% 30.26 in 10.0 mi SSE 5.8 mph - N/A   Mostly Cloudy
1:35 AM 42.8 °F 41.1 °F 37.4 °F 81% 30.26 in 10.0 mi South 3.5 mph - N/A   Partly Cloudy
1:55 AM 42.8 °F 40.1 °F 37.4 °F 81% 30.25 in 10.0 mi South 4.6 mph - N/A   Mostly Cloudy
2:15 AM 44.6 °F 41.4 °F 37.4 °F 76% 30.25 in 10.0 mi SSE 5.8 mph - N/A   Overcast
2:35 AM 44.6 °F 40.7 °F 37.4 °F 76% 30.24 in 10.0 mi SSE 6.9 mph - N/A   Overcast
2:55 AM 44.6 °F 41.4 °F 37.4 °F 76% 30.23 in 10.0 mi SSE 5.8 mph - N/A   Mostly Cloudy
3:15 AM 44.6 °F 40.7 °F 37.4 °F 76% 30.22 in 10.0 mi SSE 6.9 mph - N/A   Scattered Clouds
3:35 AM 42.8 °F 38.6 °F 37.4 °F 81% 30.22 in 10.0 mi South 6.9 mph - N/A   Partly Cloudy
3:55 AM 44.6 °F 40.2 °F 37.4 °F 76% 30.22 in 10.0 mi South 8.1 mph - N/A   Scattered Clouds
4:15 AM 42.8 °F 40.1 °F 35.6 °F 76% 30.22 in 10.0 mi SSE 4.6 mph - N/A   Scattered Clouds
4:35 AM 42.8 °F 38.6 °F 35.6 °F 76% 30.21 in 10.0 mi SSE 6.9 mph - N/A   Mostly Cloudy
4:55 AM 42.8 °F 39.3 °F 37.4 °F 81% 30.21 in 10.0 mi SSE 5.8 mph - N/A   Overcast
5:15 AM 42.8 °F 39.3 °F 37.4 °F 81% 30.19 in 10.0 mi SSE 5.8 mph - N/A   Overcast
5:35 AM 44.6 °F 40.2 °F 37.4 °F 76% 30.19 in 10.0 mi SSE 8.1 mph - N/A   Overcast
5:55 AM 44.6 °F 39.7 °F 35.6 °F 71% 30.18 in 10.0 mi SSE 9.2 mph - N/A   Overcast
6:15 AM 44.6 °F 39.7 °F 37.4 °F 76% 30.17 in 10.0 mi South 9.2 mph - N/A   Overcast
6:35 AM 44.6 °F 39.7 °F 35.6 °F 71% 30.16 in 10.0 mi South 9.2 mph - N/A   Overcast
6:55 AM 44.6 °F 39.2 °F 37.4 °F 76% 30.16 in 10.0 mi South 10.4 mph - N/A   Overcast
7:15 AM 44.6 °F 39.2 °F 37.4 °F 76% 30.15 in 10.0 mi South 10.4 mph - N/A   Overcast
7:35 AM 44.6 °F 39.7 °F 37.4 °F 76% 30.15 in 10.0 mi South 9.2 mph - N/A   Scattered Clouds
7:55 AM 46.4 °F 41.5 °F 37.4 °F 71% 30.15 in 10.0 mi South 10.4 mph - N/A   Mostly Cloudy
8:15 AM 46.4 °F 41.9 °F 37.4 °F 71% 30.15 in 10.0 mi South 9.2 mph - N/A   Mostly Cloudy
8:35 AM 46.4 °F 42.4 °F 37.4 °F 71% 30.15 in 10.0 mi South 8.1 mph - N/A   Mostly Cloudy
8:55 AM 48.2 °F - 37.4 °F 66% 30.14 in 10.0 mi SSE 8.1 mph - N/A   Overcast
9:15 AM 48.2 °F - 39.2 °F 71% 30.14 in 10.0 mi SSE 6.9 mph - N/A   Overcast
9:35 AM 50.0 °F - 39.2 °F 66% 30.15 in 10.0 mi SSE 6.9 mph - N/A   Overcast
9:55 AM 51.8 °F - 39.2 °F 62% 30.16 in 10.0 mi South 4.6 mph - N/A   Overcast
10:15 AM 53.6 °F - 39.2 °F 58% 30.16 in 10.0 mi South 9.2 mph - N/A   Overcast
10:35 AM 53.6 °F - 39.2 °F 58% 30.16 in 10.0 mi SSE 9.2 mph - N/A   Overcast
10:55 AM 55.4 °F - 41.0 °F 58% 30.15 in 10.0 mi SSE 11.5 mph - N/A   Overcast
11:15 AM 55.4 °F - 39.2 °F 54% 30.14 in 10.0 mi South 18.4 mph 25.3 mph N/A   Overcast
11:35 AM 55.4 °F - 35.6 °F 47% 30.14 in 10.0 mi SW 23.0 mph 38.0 mph N/A   Overcast
11:55 AM 53.6 °F - 37.4 °F 54% 30.15 in 10.0 mi South 21.9 mph 31.1 mph N/A   Overcast
12:15 PM 55.4 °F - 39.2 °F 54% 30.13 in 10.0 mi South 29.9 mph 36.8 mph N/A   Overcast
12:35 PM 57.2 °F - 39.2 °F 51% 30.13 in 10.0 mi South 25.3 mph 32.2 mph N/A   Overcast
12:55 PM 57.2 °F - 39.2 °F 51% 30.12 in 10.0 mi South 21.9 mph 29.9 mph N/A   Overcast
1:15 PM 55.4 °F - 41.0 °F 58% 30.12 in 10.0 mi SW 15.0 mph 19.6 mph N/A   Overcast
1:35 PM 55.4 °F - 42.8 °F 63% 30.11 in 10.0 mi SSW 28.8 mph 46.0 mph N/A   Overcast
1:55 PM 55.4 °F - 42.8 °F 63% 30.11 in 10.0 mi South 27.6 mph 41.4 mph N/A   Overcast
2:15 PM 55.4 °F - 42.8 °F 63% 30.10 in 10.0 mi South 23.0 mph 40.3 mph N/A   Mostly Cloudy
2:35 PM 55.4 °F - 42.8 °F 63% 30.08 in 10.0 mi South 27.6 mph 36.8 mph N/A   Partly Cloudy
2:55 PM 55.4 °F - 41.0 °F 58% 30.09 in 10.0 mi South 13.8 mph 34.5 mph N/A   Mostly Cloudy
3:15 PM 55.4 °F - 41.0 °F 58% 30.09 in 10.0 mi SSW 19.6 mph 28.8 mph N/A   Overcast
3:35 PM 53.6 °F - 42.8 °F 67% 30.10 in 10.0 mi SSW 17.3 mph 26.5 mph N/A   Overcast
3:55 PM 51.8 °F - 42.8 °F 71% 30.11 in 10.0 mi SSW 17.3 mph 26.5 mph 0.03 in   Overcast
4:15 PM 51.8 °F - 42.8 °F 71% 30.11 in 10.0 mi SSW 16.1 mph 27.6 mph 0.03 in   Overcast
4:35 PM 50.0 °F - 42.8 °F 76% 30.12 in 10.0 mi SSW 13.8 mph 21.9 mph 0.08 in   Overcast
4:55 PM 50.0 °F - 42.8 °F 76% 30.11 in 10.0 mi South 8.1 mph 18.4 mph 0.12 in   Overcast
5:15 PM 50.0 °F - 42.8 °F 76% 30.11 in 9.0 mi South 11.5 mph 18.4 mph 0.03 in   Overcast
5:35 PM 50.0 °F - 44.6 °F 82% 30.11 in 9.0 mi South 18.4 mph 25.3 mph 0.04 in   Overcast
5:55 PM 50.0 °F - 44.6 °F 82% 30.11 in 7.0 mi South 11.5 mph 24.2 mph 0.06 in   Overcast
6:15 PM 50.0 °F - 44.6 °F 82% 30.13 in 2.0 mi SSW 13.8 mph 17.3 mph 0.10 in   Overcast
6:35 PM 50.0 °F - 44.6 °F 82% 30.12 in 2.0 mi South 20.7 mph 24.2 mph 0.23 in   Overcast
6:55 PM 51.8 °F - 44.6 °F 76% 30.13 in 10.0 mi SSW 16.1 mph 34.5 mph N/A   Mostly Cloudy
7:15 PM 51.8 °F - 44.6 °F 76% 30.13 in 10.0 mi South 15.0 mph 26.5 mph 0.05 in   Overcast
7:35 PM 50.0 °F - 44.6 °F 82% 30.13 in 10.0 mi SSE 9.2 mph - 0.10 in   Overcast
7:55 PM 48.2 °F - 44.6 °F 87% 30.13 in 9.0 mi SSE 6.9 mph - 0.17 in   Overcast
8:15 PM 51.8 °F - 44.6 °F 76% 30.14 in 6.0 mi South 13.8 mph 21.9 mph 0.01 in   Overcast
8:35 PM 51.8 °F - 44.6 °F 76% 30.14 in 4.0 mi SSW 15.0 mph 27.6 mph 0.02 in   Overcast
8:55 PM 51.8 °F - 44.6 °F 76% 30.15 in 3.0 mi SSW 16.1 mph 29.9 mph 0.02 in   Overcast
9:15 PM 51.8 °F - 46.4 °F 82% 30.15 in 4.0 mi WSW 17.3 mph 20.7 mph 0.01 in   Overcast
9:35 PM 50.0 °F - 44.6 °F 82% 30.17 in 8.0 mi WSW 13.8 mph - 0.01 in   Overcast
9:55 PM 48.2 °F - 44.6 °F 87% 30.17 in 3.0 mi West 12.7 mph - 0.02 in   Overcast
10:15 PM 50.0 °F - 44.6 °F 82% 30.17 in 3.0 mi WSW 12.7 mph - 0.03 in   Overcast
10:35 PM 50.0 °F - 44.6 °F 82% 30.17 in 3.0 mi WSW 11.5 mph - 0.06 in   Overcast
10:55 PM 50.0 °F - 44.6 °F 82% 30.17 in 3.0 mi WSW 10.4 mph - 0.08 in   Overcast
11:15 PM 50.0 °F - 44.6 °F 82% 30.17 in 5.0 mi SSW 10.4 mph 18.4 mph N/A   Overcast
11:35 PM 50.0 °F - 44.6 °F 82% 30.17 in 10.0 mi SW 9.2 mph - N/A   Overcast
11:55 PM 50.0 °F - 44.6 °F 82% 30.18 in 8.0 mi WSW 9.2 mph - N/A   Overcast